User: anonymous   Login
Location: Chuathbaluk
(61.5726°N, 159.2454°W)
Time: 13:07:06
(UTC+00:00)
Language:

UKube-1 - Orbit

View from above orbital plane
View from above orbital plane
View from above satellite
View from above satellite

Ground track
Ground track

The orbit data is extracted from the following two-line orbital elements,

1 40074U 14037F   21016.18199067  .00000248  00000-0  36696-4 0  9999
2 40074  98.4427 223.1234 0004705 144.1313 216.0199 14.84432284353314
Epoch (UTC): 16 January 2021 04:22:03
Eccentricity: 0.0004705
inclination: 98.4427°
perigee height: 612 km
apogee height: 618 km
right ascension of ascending node: 223.1234°
argument of perigee: 144.1313°
revolutions per day: 14.84432284
mean anomaly at epoch: 216.0199°
orbit number at epoch: 35331

The dashed part of the orbit path shows where the satellite is in the earth's shadow,  

DLR